Temp
-18 -18 -19 -19 -19 -19 -19 -19 -19 -19 -19 -19 -19 -19 -19 -19 -19 -19 -19 -19 -19 -19 -19 -20 -20 -20 -20 -20 -20 -20 -21 -21 -21 -21 -22 -22 -22 -22 -22 -23 -23 -23
-19 -19 -19 -19 -19 -19 -19 -19 -19 -19 -19 -19 -19 -19 -19 -19 -20 -19 -19 -19 -19 -20 -20 -20 -20 -20 -21 -21 -21 -21 -21 -21 -22 -22 -22 -22 -22 -22 -23 -23 -23 -23
-19 -19 -19 -19 -19 -19 -19 -19 -19 -19 -19 -20 -20 -20 -20 -20 -20 -20 -20 -20 -20 -20 -21 -21 -21 -21 -21 -21 -21 -21 -22 -22 -22 -22 -22 -22 -22 -23 -23 -23 -23 -23
-20 -20 -20 -20 -20 -20 -20 -20 -20 -20 -20 -20 -20 -20 -20 -20 -20 -20 -20 -20 -21 -21 -21 -21 -21 -21 -21 -22 -22 -22 -22 -22 -22 -22 -23 -23 -23 -23 -23 -23 -23 -23
-20 -20 -20 -20 -20 -20 -20 -20 -20 -20 -20 -20 -20 -20 -20 -21 -21 -21 -21 -21 -21 -21 -21 -22 -22 -22 -22 -22 -22 -22 -22 -22 -23 -23 -23 -23 -23 -23 -23 -23 -23 -24
-20 -20 -20 -20 -20 -20 -20 -20 -20 -21 -21 -21 -21 -21 -21 -21 -21 -21 -21 -21 -21 -21 -22 -22 -22 -22 -22 -22 -22 -22 -23 -23 -23 -23 -23 -23 -23 -23 -23 -24 -24 -24
-20 -20 -20 -20 -20 -20 -21 -21 -21 -21 -21 -21 -21 -21 -21 -21 -21 -21 -21 -22 -22 -22 -22 -22 -22 -22 -22 -22 -22 -23 -23 -23 -23 -23 -23 -23 -23 -24 -24 -24 -24 -24
-21 -21 -21 -21 -21 -21 -21 -21 -21 -21 -21 -21 -21 -21 -21 -21 -22 -22 -22 -22 -22 -22 -23 -23 -23 -23 -23 -23 -23 -23 -23 -23 -23 -23 -24 -24 -24 -24 -24 -24 -24 -24
-21 -21 -21 -21 -21 -21 -21 -21 -21 -21 -21 -21 -22 -22 -22 -22 -22 -22 -22 -22 -23 -23 -23 -23 -23 -23 -23 -23 -23 -23 -23 -24 -24 -24 -24 -24 -24 -24 -24 -24 -24 -24
-21 -22 -22 -21 -21 -21 -21 -21 -22 -22 -22 -22 -22 -22 -22 -22 -23 -23 -23 -23 -23 -23 -23 -23 -23 -23 -23 -23 -23 -24 -24 -24 -24 -24 -24 -24 -24 -24 -24 -24 -24 -25
-22 -22 -22 -22 -22 -22 -22 -22 -22 -22 -22 -22 -22 -23 -23 -23 -23 -23 -23 -23 -24 -24 -24 -24 -24 -24 -24 -24 -24 -24 -24 -24 -24 -24 -24 -24 -24 -24 -24 -25 -25 -25
-22 -22 -22 -22 -22 -22 -22 -22 -22 -22 -23 -23 -23 -23 -23 -23 -24 -24 -24 -24 -24 -24 -24 -24 -24 -24 -24 -24 -24 -25 -25 -25 -25 -25 -25 -25 -25 -25 -25 -25 -25 -25
-22 -22 -22 -22 -22 -22 -22 -23 -23 -23 -23 -23 -23 -23 -23 -24 -24 -24 -24 -24 -24 -24 -24 -24 -25 -25 -25 -25 -25 -25 -25 -25 -25 -25 -25 -25 -25 -25 -25 -25 -25 -25
-23 -23 -23 -23 -23 -23 -23 -23 -23 -23 -23 -23 -23 -24 -24 -24 -25 -25 -25 -25 -25 -25 -25 -25 -25 -25 -25 -25 -25 -25 -25 -25 -25 -25 -25 -25 -25 -25 -25 -25 -26 -26
-23 -23 -23 -23 -23 -23 -23 -23 -23 -23 -24 -24 -24 -24 -24 -25 -25 -25 -25 -25 -25 -25 -25 -25 -25 -25 -26 -26 -26 -26 -26 -26 -26 -26 -26 -26 -26 -26 -26 -26 -26 -26
-23 -24 -24 -24 -24 -24 -24 -24 -24 -24 -24 -24 -24 -24 -25 -25 -25 -25 -25 -25 -25 -25 -26 -26 -26 -26 -26 -26 -26 -26 -26 -26 -26 -26 -26 -26 -26 -26 -26 -26 -26 -26
-24 -24 -24 -24 -24 -24 -24 -24 -24 -24 -24 -25 -25 -25 -25 -25 -25 -25 -25 -26 -26 -26 -26 -26 -26 -26 -26 -26 -26 -26 -26 -26 -26 -26 -26 -26 -26 -26 -26 -26 -26 -27
-25 -25 -25 -25 -25 -25 -25 -25 -25 -25 -25 -25 -25 -25 -25 -26 -26 -26 -26 -26 -26 -26 -26 -26 -26 -26 -26 -26 -26 -26 -26 -26 -26 -26 -26 -26 -26 -26 -26 -27 -27 -27
-25 -25 -25 -25 -25 -25 -25 -25 -25 -25 -25 -25 -26 -26 -26 -26 -26 -26 -26 -26 -26 -26 -26 -26 -26 -26 -26 -26 -26 -26 -27 -27 -27 -27 -26 -26 -26 -27 -27 -27 -27 -27
-26 -26 -26 -26 -26 -26 -26 -26 -26 -26 -26 -26 -26 -26 -26 -26 -26 -26 -26 -27 -27 -27 -27 -27 -27 -27 -27 -27 -27 -27 -27 -27 -27 -27 -27 -27 -27 -27 -27 -27 -27 -28
-26 -26 -26 -26 -26 -26 -26 -26 -26 -26 -26 -26 -26 -26 -26 -26 -26 -26 -26 -27 -27 -27 -27 -27 -27 -27 -27 -27 -27 -27 -27 -27 -27 -27 -27 -27 -27 -27 -27 -28 -28 -28
-27 -27 -27 -27 -27 -27 -27 -27 -27 -26 -26 -26 -26 -26 -26 -26 -26 -26 -27 -27 -27 -27 -27 -27 -27 -27 -27 -27 -27 -27 -27 -27 -27 -27 -27 -27 -28 -28 -28 -28 -28 -28
-27 -27 -27 -27 -27 -27 -27 -27 -27 -27 -27 -27 -26 -26 -26 -26 -26 -27 -27 -27 -27 -27 -27 -27 -27 -27 -27 -27 -27 -27 -28 -28 -27 -27 -28 -28 -28 -28 -28 -28 -28 -28
-27 -27 -28 -28 -28 -27 -27 -27 -27 -27 -27 -27 -27 -27 -26 -26 -26 -27 -27 -27 -27 -27 -27 -27 -27 -28 -28 -28 -28 -28 -28 -28 -28 -28 -28 -28 -28 -28 -28 -28 -28 -28
-28 -28 -28 -28 -28 -28 -28 -28 -28 -28 -28 -27 -27 -27 -27 -27 -27 -27 -27 -27 -27 -27 -27 -27 -27 -28 -28 -28 -28 -28 -28 -28 -28 -28 -28 -28 -28 -28 -28 -28 -28 -29
-28 -28 -28 -28 -28 -28 -28 -28 -28 -28 -28 -28 -28 -28 -27 -27 -27 -27 -27 -27 -28 -28 -28 -28 -28 -28 -28 -28 -28 -28 -28 -28 -28 -28 -28 -28 -28 -28 -28 -28 -28 -29
Height
5621 5620 5618 5616 5614 5611 5610 5608 5607 5605 5604 5602 5601 5599 5597 5596 5594 5592 5590 5589 5587 5586 5584 5582 5580 5578 5576 5574 5572 5570 5568 5566 5565 5563 5561 5559 5557 5555 5553 5551 5550 5548
5613 5611 5609 5608 5606 5604 5602 5600 5599 5598 5596 5594 5593 5591 5589 5588 5586 5584 5582 5581 5579 5577 5576 5574 5572 5570 5568 5566 5564 5562 5560 5558 5557 5555 5553 5551 5550 5548 5546 5544 5543 5541
5604 5602 5600 5599 5597 5595 5593 5592 5590 5589 5587 5586 5584 5582 5581 5579 5577 5575 5574 5572 5571 5569 5567 5565 5563 5561 5559 5557 5556 5554 5552 5550 5549 5547 5545 5544 5542 5540 5538 5537 5535 5533
5595 5593 5591 5590 5589 5587 5585 5583 5581 5579 5578 5576 5575 5573 5571 5570 5568 5566 5565 5563 5562 5560 5559 5557 5555 5553 5551 5549 5547 5546 5544 5542 5541 5539 5537 5536 5534 5532 5531 5529 5527 5525
5586 5584 5583 5581 5580 5578 5576 5575 5572 5570 5568 5567 5565 5563 5562 5560 5559 5557 5556 5554 5553 5552 5550 5548 5546 5544 5542 5540 5539 5537 5536 5534 5533 5531 5529 5528 5526 5524 5523 5521 5519 5517
5577 5575 5574 5572 5570 5569 5568 5566 5563 5561 5560 5558 5556 5555 5553 5551 5550 5548 5547 5546 5544 5543 5541 5539 5537 5535 5534 5532 5530 5529 5528 5526 5524 5523 5521 5520 5518 5516 5514 5513 5511 5509
5569 5567 5565 5563 5561 5559 5558 5556 5554 5552 5550 5549 5547 5546 5544 5542 5541 5540 5538 5537 5535 5534 5532 5531 5529 5527 5525 5523 5522 5521 5519 5518 5516 5515 5513 5512 5510 5508 5506 5505 5503 5501
5560 5558 5556 5554 5552 5550 5549 5547 5545 5543 5541 5539 5538 5537 5535 5533 5532 5531 5529 5528 5526 5525 5523 5522 5520 5518 5516 5514 5513 5512 5511 5510 5508 5506 5505 5504 5502 5500 5498 5497 5495 5493
5552 5550 5547 5545 5544 5542 5540 5538 5536 5534 5532 5530 5529 5527 5526 5524 5523 5521 5520 5518 5517 5516 5514 5512 5510 5509 5507 5506 5504 5503 5502 5501 5500 5498 5497 5495 5494 5492 5491 5489 5487 5485
5543 5540 5539 5537 5535 5534 5532 5529 5527 5525 5523 5522 5520 5518 5517 5515 5513 5512 5510 5509 5508 5506 5505 5503 5501 5500 5498 5497 5496 5495 5494 5493 5491 5490 5488 5487 5485 5484 5483 5481 5479 5477
5533 5531 5530 5528 5526 5525 5523 5520 5518 5517 5515 5513 5511 5509 5508 5505 5504 5502 5501 5500 5498 5497 5496 5494 5492 5491 5490 5489 5488 5486 5485 5484 5483 5481 5480 5478 5477 5475 5474 5472 5470 5469
5524 5522 5520 5519 5517 5515 5514 5511 5510 5508 5506 5504 5502 5500 5498 5497 5495 5493 5492 5490 5489 5488 5487 5485 5484 5483 5482 5480 5479 5478 5476 5475 5474 5473 5471 5470 5468 5467 5465 5464 5462 5460
5514 5512 5511 5509 5508 5506 5504 5503 5501 5499 5497 5495 5493 5491 5490 5488 5486 5484 5483 5481 5480 5479 5478 5477 5475 5474 5473 5472 5470 5469 5467 5466 5465 5464 5463 5461 5460 5458 5456 5455 5453 5451
5504 5503 5501 5499 5498 5497 5495 5493 5491 5490 5488 5485 5484 5482 5481 5479 5477 5475 5474 5472 5471 5470 5469 5468 5466 5465 5464 5462 5461 5459 5458 5457 5456 5455 5454 5452 5451 5449 5448 5446 5444 5442
5495 5493 5491 5490 5488 5487 5485 5483 5482 5480 5478 5476 5475 5473 5471 5470 5468 5466 5465 5463 5462 5460 5459 5458 5457 5456 5454 5453 5451 5450 5449 5448 5447 5446 5445 5443 5442 5440 5439 5437 5435 5433
5485 5483 5481 5480 5478 5476 5474 5473 5472 5470 5469 5467 5466 5464 5462 5461 5459 5457 5456 5454 5452 5451 5449 5448 5447 5446 5444 5443 5441 5441 5440 5439 5438 5437 5435 5434 5433 5431 5429 5428 5425 5424
5475 5473 5472 5470 5468 5466 5464 5463 5462 5461 5460 5458 5457 5455 5453 5451 5450 5448 5447 5445 5443 5442 5440 5439 5438 5436 5434 5432 5432 5431 5430 5430 5429 5427 5426 5425 5424 5422 5420 5418 5416 5415
5465 5464 5462 5460 5458 5456 5455 5453 5452 5451 5450 5448 5447 5445 5443 5442 5440 5439 5437 5435 5434 5432 5431 5430 5428 5426 5424 5423 5422 5422 5421 5420 5419 5418 5417 5415 5414 5412 5410 5409 5407 5405
5456 5454 5453 5451 5449 5447 5445 5444 5442 5441 5440 5438 5436 5435 5433 5432 5431 5429 5427 5426 5424 5423 5421 5420 5419 5416 5414 5413 5413 5412 5411 5411 5410 5408 5407 5406 5404 5403 5401 5399 5397 5396
5446 5445 5443 5441 5439 5437 5436 5434 5433 5431 5430 5428 5426 5425 5423 5422 5421 5419 5418 5416 5414 5413 5412 5411 5409 5407 5404 5404 5403 5402 5401 5401 5400 5398 5397 5396 5395 5393 5391 5389 5387 5386
5437 5435 5434 5432 5430 5428 5426 5425 5423 5422 5420 5418 5416 5415 5414 5413 5411 5409 5408 5406 5404 5403 5402 5401 5399 5397 5394 5394 5393 5392 5391 5391 5391 5389 5387 5387 5385 5383 5381 5379 5378 5377
5427 5426 5424 5422 5420 5418 5417 5415 5413 5412 5410 5408 5407 5406 5405 5403 5401 5400 5398 5396 5394 5393 5392 5391 5389 5386 5385 5384 5383 5382 5380 5380 5381 5380 5378 5376 5375 5374 5372 5370 5369 5368
5418 5417 5414 5412 5410 5408 5407 5405 5403 5401 5400 5398 5397 5396 5395 5393 5391 5390 5388 5386 5385 5383 5382 5381 5379 5376 5375 5373 5372 5371 5370 5370 5371 5371 5369 5367 5365 5364 5363 5362 5360 5358
5409 5406 5404 5401 5399 5397 5395 5393 5391 5390 5389 5387 5386 5385 5385 5383 5381 5379 5378 5377 5375 5374 5372 5371 5369 5366 5365 5363 5362 5361 5360 5360 5360 5361 5361 5359 5356 5354 5353 5352 5351 5349
5396 5394 5392 5390 5388 5386 5383 5381 5379 5378 5377 5376 5375 5374 5373 5372 5371 5369 5368 5367 5366 5364 5362 5361 5359 5357 5355 5354 5352 5351 5350 5351 5351 5351 5351 5350 5348 5346 5344 5343 5341 5339
5381 5380 5379 5377 5375 5374 5372 5370 5368 5367 5366 5365 5363 5362 5362 5361 5360 5359 5358 5357 5355 5354 5352 5351 5349 5347 5345 5344 5342 5341 5341 5341 5342 5342 5342 5340 5338 5337 5336 5334 5331 5329
Wind_Speed
60 61 62 62 63 65 66 66 66 65 66 66 65 65 65 64 64 65 66 66 65 65 64 63 63 62 62 62 61 60 59 58 56 56 55 54 54 53 53 53 52 52
60 61 62 63 63 65 65 65 65 65 65 65 65 65 64 64 64 65 66 66 65 65 64 63 62 62 62 62 61 60 59 58 57 57 56 55 54 54 54 54 53 53
61 62 63 63 63 64 65 65 65 65 65 65 65 65 64 64 64 65 65 65 65 64 64 63 62 62 62 62 61 60 59 59 58 57 56 56 55 55 55 55 55 55
62 64 64 64 64 64 65 66 66 66 66 66 66 65 65 64 64 64 65 65 65 64 63 63 63 63 62 62 62 61 60 59 58 58 57 56 56 55 55 56 56 57
63 65 65 66 65 65 65 66 66 67 67 66 66 66 65 64 64 64 65 65 65 64 64 64 64 63 63 63 62 62 61 60 59 58 57 56 56 55 55 56 57 58
64 65 66 66 66 66 65 65 66 66 66 66 66 66 66 65 65 65 65 65 65 65 64 64 64 64 64 64 63 62 61 60 60 59 57 56 56 55 55 55 56 56
64 64 65 66 66 66 65 65 66 66 66 66 66 66 66 66 65 65 65 65 65 65 65 65 65 65 65 65 64 63 62 61 60 58 57 56 55 55 55 55 55 55
63 64 64 65 66 66 66 66 66 67 67 67 66 66 66 66 65 65 65 65 65 65 65 65 65 66 66 66 65 64 62 61 60 58 57 56 55 55 55 55 55 55
63 63 64 65 66 66 66 67 67 67 68 68 67 66 66 66 65 64 64 64 64 65 65 66 66 66 66 66 65 64 62 60 60 58 57 56 55 55 55 55 55 56
63 64 64 65 65 66 66 67 67 68 68 67 67 66 65 65 64 64 64 64 64 65 65 66 67 67 67 66 65 63 62 60 59 59 58 57 56 56 56 56 56 57
63 64 64 64 64 64 65 66 66 66 66 66 66 65 64 64 64 64 63 63 64 65 66 66 67 67 66 65 64 63 62 60 59 59 58 57 57 57 57 57 57 58
63 64 63 64 64 64 64 64 64 64 64 64 64 64 64 63 63 63 63 63 64 65 66 66 66 66 65 65 64 63 62 61 60 59 59 58 57 57 58 58 58 59
64 64 64 64 64 64 64 64 63 63 63 63 64 63 63 62 62 62 62 63 64 65 65 65 65 65 65 64 64 63 62 61 60 60 59 58 58 58 59 59 59 60
64 64 64 64 63 63 63 63 63 62 62 62 63 62 62 61 61 62 62 63 64 64 65 65 65 65 65 64 63 63 62 61 61 60 60 59 59 59 60 60 61 62
64 64 64 64 64 64 63 63 63 62 62 62 62 62 62 62 62 63 63 63 64 64 64 64 65 65 64 64 63 63 62 62 61 61 61 60 60 61 61 62 63 64
64 64 64 64 64 64 63 63 63 63 63 63 63 63 63 63 63 63 63 63 64 64 64 64 64 64 64 63 63 63 63 62 62 62 61 61 61 62 63 64 65 65
63 63 63 63 63 63 63 63 63 63 64 64 64 64 64 64 64 64 63 63 63 64 64 64 64 64 64 64 64 64 63 63 62 62 63 63 63 64 65 65 65 65
62 62 62 62 62 62 62 62 63 63 63 63 63 63 63 64 64 64 63 63 64 64 64 64 64 64 65 65 65 64 64 64 64 64 65 65 66 66 66 66 65 64
62 62 62 62 62 62 62 62 63 62 62 62 62 62 63 63 63 63 64 64 64 65 65 65 65 66 66 66 66 65 65 65 66 66 67 67 67 66 66 65 64 62
64 64 63 63 63 63 63 63 63 63 63 63 63 62 62 63 63 64 64 65 65 65 66 66 66 67 68 68 67 67 67 67 67 67 67 66 66 65 64 63 62 61
66 66 65 65 64 64 64 65 64 64 64 64 64 63 63 63 63 63 64 64 65 65 65 66 67 68 68 68 68 68 68 67 67 66 66 64 63 63 62 61 61 60
68 68 68 67 67 67 67 66 66 66 66 66 65 64 64 63 63 63 63 64 64 65 65 65 66 67 68 67 67 67 67 66 64 63 63 62 61 61 60 60 60 60
71 71 71 71 71 71 70 70 70 69 69 68 67 66 64 64 64 64 63 64 64 64 64 64 65 66 66 66 66 65 65 64 62 60 60 59 59 60 59 59 60 60
74 74 74 75 75 75 75 74 73 72 71 70 69 68 66 65 65 65 64 64 63 63 63 64 64 65 65 65 64 64 62 61 60 59 58 57 58 59 59 59 60 60
77 76 77 77 77 77 77 76 76 74 73 72 71 70 69 68 67 66 65 64 63 63 63 63 64 64 64 63 63 62 62 60 59 58 57 57 58 58 59 60 60 61
79 78 78 78 77 76 75 75 75 74 74 73 72 72 71 70 69 68 67 65 64 64 63 63 64 64 63 63 63 63 62 61 60 58 58 58 58 59 59 60 61 62
Wind_Direction
277 277 277 277 277 278 278 279 280 281 281 281 281 281 281 281 280 279 279 279 279 279 279 279 279 279 279 280 280 281 282 283 284 284 285 285 286 286 285 285 285 283
279 278 278 278 278 278 279 279 280 280 280 281 281 280 280 279 279 278 278 278 278 279 278 278 278 278 279 279 280 280 281 282 283 283 284 284 284 284 284 283 283 282
279 278 278 279 279 279 279 280 281 281 281 281 281 280 279 279 278 278 278 278 278 278 278 278 278 278 278 278 279 279 280 281 281 282 282 283 283 282 282 282 281 280
279 279 279 280 280 280 281 282 282 282 282 282 281 281 280 280 279 279 278 278 278 278 278 278 278 278 278 278 278 278 279 279 280 280 281 281 281 282 281 281 280 279
279 280 280 281 281 281 281 282 283 283 283 282 282 281 281 280 280 279 279 278 278 278 279 278 278 278 277 277 277 278 278 279 279 279 280 280 280 281 281 281 280 280
280 280 281 281 282 282 282 282 282 282 282 281 281 281 280 280 280 279 279 278 278 278 278 278 278 277 277 277 277 277 277 278 278 279 279 279 279 280 280 280 281 281
280 281 281 282 282 282 282 282 282 282 281 281 280 280 280 279 279 279 278 278 278 278 278 277 277 277 276 276 277 277 277 277 278 278 278 278 278 279 279 280 281 281
280 281 281 281 281 282 282 282 282 281 281 281 280 280 280 280 279 279 278 278 277 277 277 277 276 276 276 276 277 277 278 278 278 277 277 277 277 278 279 280 280 281
280 280 280 280 280 281 281 281 281 281 281 281 281 280 280 280 279 279 278 277 277 277 277 276 276 276 276 276 277 277 277 277 277 276 276 276 276 277 278 279 279 280
280 280 280 280 280 280 280 280 280 280 281 281 281 281 281 280 279 278 278 277 277 276 276 276 276 275 276 276 277 277 277 276 276 275 275 275 276 277 278 279 279 280
280 279 279 279 279 279 279 279 279 280 280 281 281 281 280 280 279 278 277 277 276 276 276 276 276 276 276 276 277 277 276 275 275 274 275 276 277 278 278 279 280 280
281 280 280 280 279 279 279 279 279 280 280 280 280 279 279 279 278 277 277 276 276 275 276 276 276 276 276 276 276 276 275 274 274 274 275 276 277 278 279 279 280 280
283 282 282 282 281 281 281 280 280 280 279 279 279 279 279 278 277 276 276 276 276 276 276 276 276 276 276 275 275 275 274 274 274 274 276 276 277 278 278 279 279 280
284 284 284 284 284 283 283 282 281 281 280 280 280 279 278 277 276 276 276 276 276 276 276 276 275 275 275 275 274 274 274 274 275 276 276 277 277 278 278 279 280 281
285 285 285 285 285 284 284 283 282 282 281 281 280 279 278 278 277 277 277 276 276 276 275 275 275 275 275 274 274 274 274 275 275 276 276 277 278 278 279 280 281 281
286 285 285 285 285 284 284 283 283 282 282 281 281 280 280 279 279 278 277 276 275 275 275 275 275 275 274 274 274 274 274 275 275 276 276 277 278 279 280 281 281 281
285 285 285 284 284 284 283 283 283 282 282 282 281 281 281 280 280 279 278 277 276 276 275 275 275 274 274 273 273 274 274 275 275 276 277 277 278 279 280 280 280 280
285 284 284 284 284 283 283 283 283 282 282 282 282 281 281 281 281 280 279 278 277 276 276 275 274 274 274 274 274 274 274 275 276 276 277 278 279 280 280 279 279 278
284 284 284 284 284 283 283 283 283 282 282 282 281 281 281 281 281 280 279 278 277 277 276 276 275 275 275 275 275 275 276 276 277 278 278 279 279 279 279 278 278 277
284 283 283 283 284 283 283 283 283 282 282 281 281 280 280 280 280 279 279 278 278 277 277 276 276 276 276 276 276 277 277 277 278 278 278 278 278 277 277 277 277 277
283 283 283 283 283 283 283 283 283 282 281 281 280 280 280 280 280 279 279 278 278 277 277 277 277 277 277 277 277 277 277 277 277 277 277 277 276 276 276 276 276 277
283 283 283 283 283 283 283 283 283 282 281 281 280 280 280 280 280 280 279 278 278 278 278 278 277 277 277 277 277 277 277 277 277 277 277 276 276 275 276 276 276 276
283 283 284 283 283 284 284 283 282 281 280 280 280 280 280 280 280 279 279 278 278 278 278 278 277 277 277 277 277 277 277 277 277 276 276 276 276 276 276 276 276 275
281 281 282 283 283 284 284 283 282 281 280 279 279 278 278 278 278 278 278 278 278 278 277 277 277 277 277 277 277 277 276 276 276 276 275 275 275 275 275 275 275 275
280 280 280 281 282 282 282 282 281 281 280 279 277 276 276 276 276 276 276 277 277 276 276 276 276 276 276 276 276 275 275 275 275 275 276 275 275 275 275 275 275 275
282 281 281 280 280 279 279 279 279 279 278 278 277 276 275 274 274 274 275 275 275 275 275 275 275 275 275 275 274 275 275 275 275 276 275 275 275 275 275 275 276 276